FENGYUN 1C DEB

Satellite information

Favourite Embed

Satellite Type and Status

DEBRISIN ORBIT

Key statistics

Satellite FENGYUN 1C DEB at a glance.

Uptime

9610

Days in orbit

Revolutions

≈ 14.5

Per day

Orbit

SSO

Sun Synchronous Orbit

Inclination

98.6

Latest

Satellite identification and parameters

Extended collection of information and parameters for FENGYUN 1C DEB.

Object identification

Identified? True

Debris? True

Object name: FENGYUN 1C DEB

International designator: 1999-025DGB

Object number (NORAD): 33690

Object ID (CCSDS): 33690

Country: PEOPLES REPUBLIC OF CHINA (PRC)

Current information (Y/N): Y

RCS size: SMALL

Orbital parameters

Period: 99.374 minutes

Inclination: 98.6126 deg

SMA: 7106.825 km

Apoapsis: 751.463 km

Periapsis: 705.917 km

RAAN: 338.8482 deg

Eccentricy: 0.00320436

Argument of periapsis: 5.4576 deg

Mean anomaly: 354.696 deg

Mean motion: 14.49069828 rev/day

Mean motion (dot): 0.00010345 rev/day2

B* drag term: 0.0027149863 1/REarth

Two-line elements (TLE)

Creation date: Aug. 31, 2025, 2:26 a.m.

Reference frame: TEME

Reference center: EARTH

Epoch: Aug. 30, 2025, 7:07 p.m. UTC

TLE line 0: 0 FENGYUN 1C DEB

TLE line 1: 1 33690U 99025DGB 25242.79710084 .00010345 00000-0 27150-2 0 9997

TLE line 2: 2 33690 98.6126 338.8482 0032044 5.4576 354.6960 14.49069828917136

Live tracking on map

Real-time ground track for satellite FENGYUN 1C DEB.

In-orbit conjunctions

A list of the most updated potential collisions computed for object FENGYUN 1C DEB.

Target Orbit TCA Probability of collision Miss distance Type
CZ-6A DEB LEO 2025-01-23 11:49:06 0.0002213767 37.0 (m) DEBRIS
FENGYUN 1C DEB SSO 2024-11-14 02:58:55 0.0001642891 114.0 (m) DEBRIS
FENGYUN 1C DEB SSO 2024-11-12 01:43:26 0.0008019365 412.0 (m) DEBRIS

Associated space launch

Chinese polar orbiting meteorological satellite

FENGYUN 1C DEB was lifted into orbit during the mission ‘Long March 4B | Feng Yun 1C’, on board a Long March 4B space rocket.

The launch took place on May 10, 1999, 1:33 a.m. from Launch Complex 7.

For more information about the launch, click the button.

Launch to space Long March 4B | Feng Yun 1C
Long March 4B | Feng Yun 1C

Agency: N/A

Status: Launch Successful

Launch date: May 10, 1999, 1:33 a.m. UTC

Rocket: Long March 4B

Launch pad: Launch Complex 7

Location: Taiyuan Satellite Launch Center, People's Republic of China

...

Latest news about this satellite

There are no fresh news available about this satellite. Check back as we update our databases every day.


Newsletter sign-up

Weekly statistics, charts and insights to help you stay on top of the space industry.